Other Public Products
Issued by NWS Charleston, SC

Current Version | Previous Version | Graphics & Text | Print | Product List | Glossary On
Versions: 1 2 3 4 5 6 7 8 9 10 11 12 13 14 15 16 17 18 19 20 21 22 23 24 25 26 27 28 29 30 31 32 33 34 35 36 37 38 39 40 41 42 43 44 45 46 47 48 49 50
872 FPUS82 KCHS 160312 OPUCHS TEST...KCHS/KSAV Gateway Observations...TEST National Weather Service Charleston SC 1000 PM EST FRI DEC 15 2017 NOTE: "fair" indicates few or no clouds below 12,000 feet with no significant weather and/or obstructions to visibility. SCZ050-WAZ558-NCZ071-TXZ119-213-PAZ071-DCZ001-FLZ074-172-MI076- NYZ176-178-MAZ016-IL014-TNZ027-NJZ106-GAZ044-MD014-160400- ...Gateway Observations for Charleston International... CITY SKY/WX TMP DP RH WIND PRES REMARKS Chas Airport CLOUDY 53 36 52 W12 30.10R Seattle CLOUDY 42 41 96 S5 30.22R FOG Charlotte PTCLDY 34 24 67 NW6 30.10R WCI 29 Dallas DFW PTCLDY 43 24 47 S7 30.20F Dallas Love PTCLDY 45 27 49 CALM 30.22S Philladelphia PTCLDY 24 19 81 W10 29.98S WCI 14 Wash National PTCLDY 27 24 89 S6 30.02S WCI 20 Baltimore MOCLDY 20 19 96 SW3 30.00R Miami CLOUDY 69 58 67 CALM 30.17R Detroit FLURRIES 29 19 66 SW13 29.92R WCI 19 Newark PTCLDY 22 18 85 SW8 29.93S WCI 12 Laguardia PTCLDY 26 18 71 W13 29.92R WCI 15 J F K PTCLDY 25 19 78 W17 29.94R WCI 12 Boston Logan FLURRIES 25 17 72 W9 29.85F WCI 15 Ft. Lauderdale PTCLDY 67 58 72 CALM 30.15R Chicago O`Hare CLOUDY 34 21 59 SW9 29.89F WCI 27 Chicago Midway CLOUDY 35 22 58 SW12 29.92S WCI 27 Houston Bush CLOUDY 47 38 71 S5 30.29R Houston Hobby CLOUDY 49 38 65 CALM 30.29R Nashville CLEAR 31 23 72 S8 30.21S WCI 23 Atlanta MOCLDY 33 25 72 NW8 30.19R WCI 26 $$ GAZ044-118-TXZ119-213-NCZ071-DCZ001-MDZ014-506-PAZ021-071-NJZ106- NYZ176-178-MAZ106-OHZ011-021-055-MIZ076-KYZ091-ILZ014-INZ047- MNZ060-ONZ431-160400- ...Gateway Observations for Savannah International... CITY SKY/WX TMP DP RH WIND PRES REMARKS Savannah Arpt CLOUDY 52 35 52 W10 30.15R Atlanta MOCLDY 33 25 72 NW8 30.19R WCI 26 Charlotte PTCLDY 34 24 67 NW6 30.10R WCI 29 Dallas DFW PTCLDY 43 24 47 S7 30.20F Houston Bush CLOUDY 47 38 71 S5 30.29R Wash National PTCLDY 27 24 89 S6 30.02S WCI 20 Wash Dulles MOCLDY 24 23 96 S8 30.00S WCI 15 Baltimore MOCLDY 20 19 96 SW3 30.00R Philadelphia PTCLDY 24 19 81 W10 29.98S WCI 14 Newark PTCLDY 22 18 85 SW8 29.93S WCI 12 Laguardia PTCLDY 26 18 71 W13 29.92R WCI 15 J F K PTCLDY 25 19 78 W17 29.94R WCI 12 Boston FLURRIES 25 17 72 W9 29.85F WCI 15 Pittsburg CLOUDY 28 18 66 W14 29.96R WCI 17 Akron CLOUDY 26 14 60 W10 29.96R WCI 16 Cleveland CLOUDY 26 17 68 SW12 29.98R WCI 16 Cincinnati CLOUDY 32 23 69 SW8 30.08S WCI 25 Columbus CLOUDY 29 20 70 SW9 30.06S WCI 20 Detroit FLURRIES 29 19 66 SW13 29.92R WCI 19 Chicago O`Hare CLOUDY 34 21 59 SW9 29.89F WCI 27 Minneapolis LGT SNOW 27 26 96 SE7 29.73F FOG WCI 19 Indianapolis CLOUDY 31 22 69 S10 30.03F WCI 22 Toronto Canada PTCLDY 23 16 74 W17G24 29.75R WCI 9 $$

USA.gov is the U.S. government's official web portal to all federal, state and local government web resources and services.